Tracking 22780 objects as of 11-Apr-2021
HD Live streaming from Space Station
objects crossing your sky now

WESTFORD NEEDLES

Track WESTFORD NEEDLES now!
10-day predictions
WESTFORD NEEDLES is classified as:


NORAD ID: 2377
Int'l Code: 1963-014X
Perigee: 2,730.1 km
Apogee: 4,506.6 km
Inclination: 87.3 °
Period: 165.6 minutes
Semi major axis: 9989 km
RCS: 0.1884 m2 (medium)
Launch date: May 9, 1963
Source: United States (US)
Launch site: AIR FORCE WESTERN TEST RANGE (AFWTR)
aabbcc
Your satellite tracking list
Your tracking list is empty




NASA's NSSDC Master Catalog

Two Line Element Set (TLE):
1 02377U 63014X   21100.38610499  .00001402  00000-0  42102+0 0  9992
2 02377  87.2799 350.5933 0889207 139.9632 227.0339  8.69550591761466
Source of the keplerian elements: AFSPC